User: anonymous   Login
Location: Unspecified
(0.0000°N, 0.0000°E)
Time: 23:34:37
(UTC+00:00)
Language:

Explorer 29 - Orbit

View from above orbital plane
View from above orbital plane
View from above satellite
View from above satellite

Ground track
Ground track

The orbit data is extracted from the following two-line orbital elements,

1  1726U 65089A   18142.49457043 -.00000077 +00000-0 -32492-5 0  9997
2  1726 059.3765 175.0713 0720115 093.5578 045.9283 11.97047896296752
Epoch (UTC): 22 May 2018 11:52:10
Eccentricity: 0.0720115
inclination: 59.3765°
perigee height: 1113 km
apogee height: 2275 km
right ascension of ascending node: 175.0713°
argument of perigee: 93.5578°
revolutions per day: 11.97047896
mean anomaly at epoch: 45.9283°
orbit number at epoch: 29675

The dashed part of the orbit path shows where the satellite is in the earth's shadow,  

DLR